This demonstration page uses our WeatherBlox Daily Observations layout. Learn more.

Left ArrowRight Arrow

53.62937, 11.41316

Hourly Observations for June 3, 2015

Temp ( °F °C ) Dew Point ( °F °C ) Humidity (%) Winds ( mph kmh ) Pressure ( in mb ) Visibility ( mi km ) Precip ( " mm )
6:20 am 06:20 Mostly Cloudy 64 18 50 10 60 60 WSW 21 33 29.85 1011 30 48 N/A
6:50 am 06:50 Mostly Cloudy 64 18 50 10 60 60 WSW 20 31 29.85 1011 30 48 N/A
7:20 am 07:20 Mostly Cloudy 63 17 48 9 59 59 WSW 13 20 29.88 1012 30 48 N/A
7:50 am 07:50 Partly Cloudy 64 18 48 9 56 56 WSW 18 30 29.91 1013 30 48 N/A
8:20 am 08:20 Partly Cloudy 64 18 48 9 56 56 WSW 21 33 29.91 1013 30 48 N/A
8:28 am 08:28 Mostly Sunny 64 18 48 9 56 56 WSW 21 33 29.91 1013 30 48 N/A
8:50 am 08:50 Mostly Sunny 64 18 48 9 56 56 WSW 21 33 29.91 1013 7 11 N/A
9:20 am 09:20 Mostly Cloudy 63 17 48 9 59 59 WSW 16 26 29.94 1014 30 48 N/A
9:50 am 09:50 Mostly Cloudy 63 17 46 8 56 56 WSW 18 30 29.94 1014 30 48 N/A
10:20 am 10:20 Mostly Cloudy 63 17 46 8 56 56 WSW 18 30 29.97 1015 30 48 N/A
10:50 am 10:50 Mostly Cloudy 63 17 46 8 56 56 WSW 21 33 29.97 1015 30 48 N/A
11:20 am 11:20 Mostly Cloudy 63 17 46 8 56 56 W 13 20 29.97 1015 30 48 N/A
11:50 am 11:50 Mostly Sunny 63 17 46 8 56 56 WSW 17 28 30.00 1016 7 11 N/A
12:09 pm 12:09 Mostly Sunny 64 18 46 8 52 52 WSW 17 28 30.00 1016 7 11 N/A
12:20 pm 12:20 Mostly Sunny 64 18 46 8 52 52 WSW 20 31 30.00 1016 7 11 N/A
12:50 pm 12:50 Mostly Sunny 63 17 46 8 56 56 W 15 24 30.03 1017 7 11 N/A
1:20 pm 13:20 Mostly Sunny 66 19 48 9 52 52 WSW 16 26 30.03 1017 7 11 N/A
1:50 pm 13:50 Partly Cloudy 63 17 46 8 56 56 W 16 26 30.06 1018 30 48 N/A
2:20 pm 14:20 Mostly Sunny 61 16 46 8 59 59 W 16 26 30.06 1018 7 11 N/A
2:50 pm 14:50 Mostly Sunny 63 17 48 9 59 59 W 15 24 30.09 1019 7 11 N/A
3:07 pm 15:07 Mostly Sunny 63 17 45 7 52 52 WSW 17 28 30.09 1019 7 11 N/A
3:20 pm 15:20 Mostly Sunny 63 17 45 7 52 52 W 21 33 30.09 1019 7 11 N/A
3:32 pm 15:32 Mostly Sunny 63 17 46 8 56 56 NW 13 20 30.12 1020 7 11 N/A
3:50 pm 15:50 Mostly Sunny 61 16 48 9 63 63 WNW 13 20 30.12 1020 7 11 N/A
4:20 pm 16:20 Mostly Sunny 59 15 45 7 59 59 W 17 28 30.15 1021 7 11 N/A
4:50 pm 16:50 Mostly Sunny 63 17 46 8 56 56 W 18 30 30.15 1021 7 11 N/A
5:20 pm 17:20 Mostly Sunny 63 17 46 8 56 56 W 15 24 30.15 1021 7 11 N/A
5:50 pm 17:50 Mostly Sunny 63 17 46 8 56 56 W 15 24 30.15 1021 7 11 N/A
6:20 pm 18:20 Mostly Sunny 63 17 46 8 56 56 W 14 22 30.15 1021 7 11 N/A
6:50 pm 18:50 Mostly Sunny 61 16 45 7 55 55 W 14 22 30.18 1022 7 11 N/A

Powered by AerisWeather